Cavalier, ND

8:11 AM CDT on May 25, 2017 (GMT -0500)
Cavalier

Weather History for K2C8 - August, 2013

Change the Weather History Date:

Saturday, August 31, 2013

  Actual Average (KGAF) Record (KGAF)
Temperature  
Mean Temperature 72 °F -  
Max Temperature 82 °F 77 °F 100 °F (1953)
Min Temperature 62 °F 51 °F 38 °F (1974)
Cooling Degree Days 7    
Growing Degree Days 22 (Base 50)    
Moisture  
Dew Point 64 °F    
Average Humidity 76    
Maximum Humidity 94    
Minimum Humidity 58    
Precipitation  
Precipitation 0.26 in - - ()
Sea Level Pressure  
Sea Level Pressure 29.74 in    
Wind  
Wind Speed 8 mph (WSW)    
Max Wind Speed 38 mph    
Max Gust Speed 47 mph    
Visibility 10 miles    
Events Rain , Thunderstorm    
Averages and records for this station are not official NWS values.
T = Trace of Precipitation, MM = Missing Value Source: NWS Daily Summary

Daily Weather History Graph

Daily Weather History Graph

Search for Another Location

Airport or City:

Trip Planner

Search our weather history database for the weather conditions in past years. The results will help you decide how hot, cold, wet, or windy it might be!

Date:

Astronomy

Aug. 31, 2013 Rise Set
Actual Time 6:46 AM CDT 8:14 PM CDT
Civil Twilight 6:13 AM CDT 8:46 PM CDT
Nautical Twilight 5:33 AM CDT 9:26 PM CDT
Astronomical Twilight 4:50 AM CDT 10:09 PM CDT
Moon 2:01 AM CDT (8/31) 5:26 PM CDT (8/31)
Length of Visible Light 14h 33m
Length of Day
13h 27m
Waning Crescent, 21% of the Moon is Illuminated
Aug 31
Waning Crescent
Sep 5
New
Sep 12
First Quarter
Sep 19
Full
Sep 26
Last Quarter

Hourly Weather History & Observations

Time (CDT) Temp. Heat Index Dew Point Humidity Pressure Visibility Wind Dir Wind Speed Gust Speed Precip Events Conditions
12:15 AM 73.4 °F - 64.4 °F 73% 29.74 in 10.0 mi South 9.2 mph - N/A   Clear
12:35 AM 73.4 °F - 64.4 °F 73% 29.73 in 10.0 mi South 6.9 mph - N/A   Clear
12:55 AM 73.4 °F - 62.6 °F 69% 29.74 in 10.0 mi South 8.1 mph - N/A   Clear
1:15 AM 73.4 °F - 62.6 °F 69% 29.76 in 10.0 mi SSW 3.5 mph - N/A   Clear
1:35 AM 71.6 °F - 62.6 °F 73% 29.75 in 10.0 mi SSW 4.6 mph - N/A   Partly Cloudy
1:55 AM 71.6 °F - 62.6 °F 73% 29.75 in 10.0 mi SSW 5.8 mph - N/A   Clear
2:15 AM 73.4 °F - 62.6 °F 69% 29.77 in 10.0 mi NW 16.1 mph 27.6 mph N/A Thunderstorm Scattered Clouds
2:35 AM 75.2 °F - 64.4 °F 69% 29.77 in 10.0 mi NNE 11.5 mph 24.2 mph N/A Thunderstorm Scattered Clouds
2:55 AM 69.8 °F - 66.2 °F 88% 29.76 in 10.0 mi ESE 6.9 mph - N/A Thunderstorm Partly Cloudy
3:15 AM 69.8 °F - 66.2 °F 88% 29.76 in 10.0 mi SSE 6.9 mph - N/A   Clear
3:35 AM 68.0 °F - 64.4 °F 88% 29.77 in 9.0 mi South 5.8 mph - N/A Thunderstorm Clear
3:55 AM 68.0 °F - 64.4 °F 88% 29.78 in 10.0 mi Calm Calm - N/A Thunderstorm Scattered Clouds
4:15 AM 68.0 °F - 64.4 °F 88% 29.75 in 10.0 mi SSW 8.1 mph - N/A   Partly Cloudy
4:35 AM 68.0 °F - 64.4 °F 88% 29.75 in 10.0 mi South 4.6 mph - N/A   Partly Cloudy
4:55 AM 68.0 °F - 64.4 °F 88% 29.78 in 10.0 mi WNW 4.6 mph - N/A Thunderstorm Scattered Clouds
5:35 AM 66.2 °F - 64.4 °F 94% 29.76 in 10.0 mi SSE 4.6 mph - 0.18 in Thunderstorm Overcast
5:55 AM 66.2 °F - 62.6 °F 88% 29.76 in 10.0 mi SE 5.8 mph - 0.18 in   Overcast
6:15 AM 66.2 °F - 62.6 °F 88% 29.75 in 10.0 mi South 8.1 mph - N/A   Mostly Cloudy
6:35 AM 66.2 °F - 62.6 °F 88% 29.75 in 10.0 mi SSE 8.1 mph - N/A   Mostly Cloudy
6:55 AM 66.2 °F - 62.6 °F 88% 29.76 in 10.0 mi SSW 5.8 mph - N/A   Mostly Cloudy
7:15 AM 68.0 °F - 62.6 °F 83% 29.76 in 10.0 mi South 8.1 mph - N/A   Mostly Cloudy
7:35 AM 68.0 °F - 62.6 °F 83% 29.75 in 10.0 mi South 9.2 mph - N/A   Mostly Cloudy
7:55 AM 68.0 °F - 62.6 °F 83% 29.74 in 10.0 mi South 10.4 mph - N/A   Scattered Clouds
8:15 AM 68.0 °F - 64.4 °F 88% 29.73 in 10.0 mi SSW 4.6 mph - N/A   Clear
8:35 AM 69.8 °F - 64.4 °F 83% 29.73 in 10.0 mi West 5.8 mph - N/A   Clear
8:55 AM 71.6 °F - 66.2 °F 83% 29.72 in 10.0 mi South 6.9 mph - N/A   Clear
9:15 AM 73.4 °F - 66.2 °F 78% 29.72 in 10.0 mi South 5.8 mph - N/A   Clear
9:35 AM 73.4 °F - 66.2 °F 78% 29.70 in 10.0 mi South 6.9 mph - N/A   Clear
9:55 AM 75.2 °F - 66.2 °F 73% 29.70 in 10.0 mi SSW 8.1 mph - N/A   Clear
10:15 AM 77.0 °F - 66.2 °F 69% 29.69 in 10.0 mi SW 10.4 mph - N/A   Clear
10:35 AM 78.8 °F - 64.4 °F 61% 29.69 in 10.0 mi WSW 6.9 mph - N/A   Clear
10:55 AM 80.6 °F 82.7 °F 66.2 °F 61% 29.70 in 10.0 mi WSW 8.1 mph - N/A   Clear
11:15 AM 80.6 °F 82.7 °F 66.2 °F 61% 29.71 in 10.0 mi WNW 5.8 mph - N/A   Clear
11:35 AM 80.6 °F 82.7 °F 66.2 °F 61% 29.70 in 10.0 mi WNW 10.4 mph 16.1 mph N/A   Clear
11:55 AM 80.6 °F 82.7 °F 66.2 °F 61% 29.70 in 10.0 mi WNW 6.9 mph 16.1 mph N/A   Partly Cloudy
12:15 PM 80.6 °F 82.7 °F 66.2 °F 61% 29.70 in 10.0 mi WSW 6.9 mph - N/A   Partly Cloudy
12:35 PM 78.8 °F - 66.2 °F 65% 29.71 in 10.0 mi WSW 8.1 mph - N/A   Partly Cloudy
12:55 PM 80.6 °F 82.7 °F 66.2 °F 61% 29.71 in 10.0 mi WSW 8.1 mph - N/A Thunderstorm Scattered Clouds
1:15 PM 78.8 °F - 68.0 °F 69% 29.68 in 10.0 mi West 5.8 mph - N/A   Partly Cloudy
1:35 PM 80.6 °F 83.2 °F 68.0 °F 65% 29.68 in 10.0 mi West 5.8 mph - N/A   Scattered Clouds
1:55 PM 78.8 °F - 68.0 °F 69% 29.70 in 10.0 mi SW 5.8 mph - N/A   Scattered Clouds
2:15 PM 80.6 °F 83.9 °F 69.8 °F 70% 29.69 in 10.0 mi SW 11.5 mph 17.3 mph N/A   Partly Cloudy
2:35 PM 80.6 °F 83.2 °F 68.0 °F 65% 29.69 in 10.0 mi SSW 10.4 mph - N/A   Clear
2:55 PM 82.4 °F 85.4 °F 68.0 °F 62% 29.68 in 10.0 mi South 9.2 mph - N/A   Partly Cloudy
3:15 PM 82.4 °F 86.3 °F 69.8 °F 66% 29.67 in 10.0 mi SSW 8.1 mph - N/A   Clear
3:35 PM 82.4 °F 86.3 °F 69.8 °F 66% 29.67 in 10.0 mi SSW 3.5 mph - N/A   Partly Cloudy
3:55 PM 82.4 °F 85.4 °F 68.0 °F 62% 29.65 in 10.0 mi WNW 6.9 mph - N/A   Clear
4:15 PM 82.4 °F 85.4 °F 68.0 °F 62% 29.66 in 10.0 mi NW 5.8 mph - N/A   Partly Cloudy
4:35 PM 82.4 °F 84.6 °F 66.2 °F 58% 29.65 in 10.0 mi West 4.6 mph - N/A   Partly Cloudy
4:55 PM 82.4 °F 84.6 °F 66.2 °F 58% 29.64 in 10.0 mi WNW 4.6 mph - N/A   Clear
5:15 PM 82.4 °F 84.6 °F 66.2 °F 58% 29.62 in 10.0 mi WSW 5.8 mph - N/A Thunderstorm Clear
5:35 PM 78.8 °F - 64.4 °F 61% 29.69 in 8.0 mi NNW 38.0 mph 46.0 mph N/A Thunderstorm Scattered Clouds
5:55 PM 64.4 °F - 59.0 °F 83% 29.72 in 10.0 mi NNW 21.9 mph 47.2 mph N/A Rain , Thunderstorm Light Rain
6:15 PM 66.2 °F - 57.2 °F 73% 29.73 in 10.0 mi NNW 19.6 mph 27.6 mph N/A   Mostly Cloudy
6:35 PM 66.2 °F - 57.2 °F 73% 29.73 in 10.0 mi NNW 20.7 mph 28.8 mph N/A   Scattered Clouds
6:55 PM 64.4 °F - 57.2 °F 77% 29.73 in 10.0 mi NW 17.3 mph 23.0 mph N/A   Partly Cloudy
7:15 PM 66.2 °F - 59.0 °F 78% 29.74 in 10.0 mi NW 17.3 mph 21.9 mph N/A   Clear
7:35 PM 66.2 °F - 60.8 °F 83% 29.75 in 10.0 mi NW 12.7 mph 24.2 mph N/A   Clear
7:55 PM 66.2 °F - 60.8 °F 83% 29.76 in 10.0 mi NW 11.5 mph - N/A   Clear
8:15 PM 66.2 °F - 59.0 °F 78% 29.78 in 10.0 mi NNW 12.7 mph 20.7 mph N/A   Partly Cloudy
8:35 PM 66.2 °F - 59.0 °F 78% 29.79 in 10.0 mi NW 11.5 mph 17.3 mph N/A   Partly Cloudy
8:55 PM 66.2 °F - 60.8 °F 83% 29.79 in 10.0 mi NW 11.5 mph 16.1 mph N/A   Clear
9:15 PM 64.4 °F - 60.8 °F 88% 29.80 in 10.0 mi NW 9.2 mph - N/A   Clear
9:35 PM 66.2 °F - 62.6 °F 88% 29.81 in 10.0 mi NW 11.5 mph - N/A   Partly Cloudy
9:55 PM 66.2 °F - 62.6 °F 88% 29.82 in 10.0 mi NW 9.2 mph - N/A   Mostly Cloudy
10:15 PM 66.2 °F - 62.6 °F 88% 29.83 in 8.0 mi NW 13.8 mph 19.6 mph N/A   Overcast
10:35 PM 64.4 °F - 62.6 °F 94% 29.83 in 3.0 mi NW 10.4 mph - 0.04 in Rain Light Rain
10:55 PM 64.4 °F - 62.6 °F 94% 29.83 in 10.0 mi NNW 12.7 mph 21.9 mph 0.04 in   Overcast
11:15 PM 64.4 °F - 60.8 °F 88% 29.84 in 10.0 mi North 15.0 mph 23.0 mph N/A   Overcast
11:35 PM 62.6 °F - 60.8 °F 94% 29.85 in 5.0 mi North 11.5 mph 19.6 mph N/A   Overcast
11:55 PM 62.6 °F - 60.8 °F 94% 29.85 in 2.5 mi NNW 13.8 mph 24.2 mph 0.04 in   Overcast